This is the latest recevied weather packets stored in our database for station/object W4DEX-2. If no packets are shown the sender has not sent any weather packets the latest 10 day(s).
| Time | Temp. | Humidity | Pressure | Rain* | Wind** | Luminosity | Snow |
|---|---|---|---|---|---|---|---|
| 1777880702 | 10° C | 63% | 1015.9 hPa | 0 mm | 5.36 m/s, 173° | - | - |
| 1777879802 | 10° C | 61% | 1015.9 hPa | 0 mm | 5.36 m/s, 173° | - | - |
| 1777879502 | 10° C | 61% | 1015.9 hPa | 0 mm | 5.36 m/s, 176° | - | - |
| 1777878602 | 10.56° C | 60% | 1015.9 hPa | 0 mm | 5.36 m/s, 173° | - | - |
| 1777878302 | 10.56° C | 59% | 1015.8 hPa | 0 mm | 5.36 m/s, 175° | - | - |
| 1777878003 | 10.56° C | 59% | 1015.9 hPa | 0 mm | 4.92 m/s, 173° | - | - |
| 1777877703 | 10.56° C | 59% | 1015.9 hPa | 0 mm | 5.36 m/s, 178° | - | - |
| 1777877402 | 11.11° C | 58% | 1016.1 hPa | 0 mm | 5.36 m/s, 174° | - | - |
| 1777877103 | 11.11° C | 58% | 1015.9 hPa | 0 mm | 5.36 m/s, 174° | - | - |
| 1777876803 | 11.11° C | 57% | 1015.9 hPa | 0 mm | 5.36 m/s, 173° | - | - |
| 1777876502 | 11.11° C | 56% | 1015.9 hPa | 0 mm | 5.36 m/s, 174° | - | - |
| 1777876202 | 11.11° C | 56% | 1016.2 hPa | 0 mm | 5.36 m/s, 172° | - | - |
| 1777875602 | 11.67° C | 55% | 1016.1 hPa | 0 mm | 4.92 m/s, 178° | - | - |
| 1777875302 | 11.67° C | 54% | 1016.1 hPa | 0 mm | 5.36 m/s, 173° | - | - |
| 1777875002 | 11.67° C | 53% | 1016.1 hPa | 0 mm | 5.36 m/s, 176° | - | - |
| 1777874402 | 12.22° C | 53% | 1015.9 hPa | 0 mm | 5.36 m/s, 171° | - | - |
| 1777874102 | 12.22° C | 54% | 1016.1 hPa | 0 mm | 5.36 m/s, 174° | - | - |
| 1777873802 | 12.22° C | 54% | 1015.9 hPa | 0 mm | 5.36 m/s, 173° | - | - |
| 1777871702 | 11.67° C | 56% | 1016.3 hPa | 0 mm | 5.81 m/s, 178° | - | - |
| 1777871402 | 11.67° C | 57% | 1016.4 hPa | 0 mm | 5.36 m/s, 173° | - | - |
| 1777870202 | 11.67° C | 56% | 1016.3 hPa | 0 mm | 5.36 m/s, 177° | - | - |
| 1777869902 | 11.67° C | 56% | 1016.5 hPa | 0 mm | 5.36 m/s, 175° | - | - |
| 1777869603 | 11.67° C | 56% | 1016.4 hPa | 0 mm | 4.92 m/s, 179° | - | - |
| 1777869303 | 11.67° C | 56% | 1016.5 hPa | 0 mm | 4.92 m/s, 178° | - | - |
| 1777868702 | 11.67° C | 55% | 1016.5 hPa | 0 mm | 5.81 m/s, 176° | - | - |
* Rain latest hour (hover to see other rain measurements)
** Current wind speed in m/s (hover to see current wind gust speed)